TimeAST,TemperatureF,Dew PointF,Humidity,Sea Level PressureIn,VisibilityMPH,Wind Direction,Wind SpeedMPH,Gust SpeedMPH,PrecipitationIn,Events,Conditions,WindDirDegrees,DateUTC
2:00 AM,77,74,87,30.01,10,Calm,Calm,,,,Partly Cloudy,,2013-05-24 06:00:00
2:00 AM,77.0,73.4,89,30.01,6.2,Calm,Calm,-,N/A,,Scattered Clouds,0,2013-05-24 06:00:00
5:00 AM,77,73,84,29.98,10,Calm,Calm,,,,Mostly Cloudy,,2013-05-24 09:00:00
5:00 AM,-9999,-9999,N/A,29.98,6.2,Calm,Calm,-,N/A,,Mostly Cloudy,0,2013-05-24 09:00:00
8:00 AM,80.6,75.2,84,30.01,6.2,Calm,Calm,-,N/A,,Partly Cloudy,0,2013-05-24 12:00:00
9:00 AM,82.4,73.4,74,30.01,6.2,ESE,11.5,-,N/A,,Scattered Clouds,120,2013-05-24 13:00:00
10:00 AM,82.4,75.2,79,30.01,6.2,ENE,11.5,-,N/A,,Scattered Clouds,70,2013-05-24 14:00:00
11:00 AM,86.0,73.4,66,30.01,6.2,East,13.8,-,N/A,,Scattered Clouds,90,2013-05-24 15:00:00
12:00 PM,87.8,77.0,70,30.01,6.2,East,17.3,-,N/A,,Mostly Cloudy,100,2013-05-24 16:00:00
1:00 PM,86.0,77.0,74,30.01,6.2,East,17.3,-,N/A,,Partly Cloudy,90,2013-05-24 17:00:00
2:00 PM,88,77,62,30.00,10,East,15.7,,,,Partly Cloudy,90,2013-05-24 18:00:00
2:00 PM,87.8,77.0,70,29.98,6.2,East,17.3,-,N/A,,Scattered Clouds,90,2013-05-24 18:00:00
3:00 PM,87.8,77.0,70,29.98,6.2,East,17.3,-,N/A,,Scattered Clouds,90,2013-05-24 19:00:00
4:00 PM,86.0,77.0,74,29.98,6.2,East,11.5,-,N/A,,Scattered Clouds,90,2013-05-24 20:00:00
5:00 PM,85,75,66,29.99,10,East,17.9,,,,Partly Cloudy,90,2013-05-24 21:00:00
5:00 PM,84.2,75.2,74,29.98,6.2,East,17.3,-,N/A,,Scattered Clouds,90,2013-05-24 21:00:00
6:00 PM,82.4,75.2,79,29.98,6.2,East,16.1,-,N/A,,Mostly Cloudy,100,2013-05-24 22:00:00
7:00 PM,80.6,75.2,84,29.98,6.2,ESE,8.1,-,N/A,,Mostly Cloudy,120,2013-05-24 23:00:00
8:00 PM,80.6,75.2,84,30.01,6.2,ESE,5.8,-,N/A,,Mostly Cloudy,120,2013-05-25 00:00:00
11:00 PM,78.8,75.2,89,30.04,-9999.0,Calm,Calm,-,N/A,,Mostly Cloudy,0,2013-05-25 03:00:00